[[{"header":{"parameterUnit":"m.s-1","parameterCategory":1,"la1":30.2992,"la2":30.254,"lo1":-89.0895,"lo2":-89.0443,"dy":0.0025,"dx":0.0025,"nx":19,"ny":19,"refTime":"2026-03-29T21:00:00:Z","depth":0,"parameterNumber":2,"parameterNumberName":"U-component_of_WINDS"},"data":[0,0,0,-5.5267,-5.527,-5.5387,-5.5387,-5.5564,-5.5566,0,0,0,0,0,0,0,0,0,0,0,-5.5252,-5.5254,-5.5267,-5.527,-5.5386,-5.5387,-5.5564,-5.5566,0,0,0,0,0,0,0,0,0,0,0,-5.5251,-5.5254,-5.5256,-5.5271,-5.5386,-5.5387,-5.5564,-5.5465,0,0,0,0,0,0,0,0,0,0,-5.5347,-5.5353,-5.5253,-5.5256,-5.5272,-5.5386,-5.5387,-5.546,-5.5471,-5.5525,0,-5.558,0,-5.5577,-5.558,-5.5581,0,0,0,-5.5255,-5.5344,-5.5358,-5.5257,-5.5273,-5.5386,-5.533,-5.5466,-5.5479,-5.554,-5.5582,-5.5588,-5.558,-5.5582,-5.5583,-5.5951,-5.5953,0,0,-5.5248,-5.5283,-5.5349,-5.5367,-5.5354,-5.5326,-5.5333,-5.5473,-5.552,-5.5583,-5.5592,-5.5583,-5.5583,-5.5585,-5.5948,-5.5951,0,0,0,-5.524,-5.5279,-5.5289,-5.5361,-5.538,-5.533,-5.5338,-5.5514,-5.5514,-5.5593,-5.5585,-5.5584,-5.5587,-5.5946,-5.5949,-5.6104,0,0,0,-5.5236,-5.5275,-5.5287,-5.531,-5.5378,-5.5449,-5.5377,-5.5505,-5.5519,-5.5584,-5.5584,-5.5589,-5.5943,-5.5948,-5.6093,-5.6169,0,0,0,-5.5238,-5.5274,-5.5299,-5.5311,-5.5363,-5.5446,-5.5454,-5.5507,-5.5515,-5.5581,-5.5589,-5.5941,-5.5947,-5.6084,-5.6154,-5.6274,0,0,0,-5.5249,-5.5433,-5.5302,-5.5504,-5.5362,-5.5542,-5.5452,-5.5584,-5.566,-5.5585,-5.5943,-5.5949,-5.6082,-5.6145,-5.6265,-5.638,-5.6432,0,0,-5.55,-5.5465,-5.5581,-5.5467,-5.5679,-5.5522,-5.5756,-5.579,-5.5764,-5.5889,-5.5898,-5.6097,-5.6153,-5.6272,-5.6718,-5.676,0,0,0,-5.5672,-5.5755,-5.5804,-5.5879,-5.5913,-5.5947,-5.5943,-5.5956,-5.6061,-5.5837,-5.6173,-5.6206,-5.6274,-5.6327,-5.6363,-5.6418,-5.5976,-5.5975,-5.5975,-5.6074,-5.6033,-5.6222,-5.6195,-5.6269,-5.6265,-5.632,-5.6336,-5.6272,-5.6353,-5.6388,-5.6664,-5.6727,-5.6753,-5.6812,-5.6448,-5.6449,-5.6449,-5.645,-5.6435,-5.6545,-5.6459,-5.661,-5.6565,-5.6691,-5.6695,-5.6645,-5.6754,-5.6633,-5.6691,-5.6559,-5.6801,-5.6849,-5.6461,-5.6459,-5.6458,-5.6456,-5.6456,-5.669,-5.6735,-5.6751,-5.6856,-5.6942,-5.6909,-5.7019,-5.6974,-5.6932,-5.6991,-5.7022,-5.7019,-5.7008,-5.701,-5.7011,-5.7012,-5.7012,-5.7013,-5.7014,-5.6946,-5.6959,-5.7058,-5.7112,-5.7155,-5.7205,-5.7206,-5.7246,-5.7278,-5.7236,-5.7236,-5.7162,-5.6834,-5.675,-5.7028,-5.7026,-5.7024,-5.7022,-5.7021,-5.732,-5.7229,-5.7382,-5.7426,-5.7485,-5.7572,-5.7517,-5.7603,-5.7629,-5.7685,-5.76,-5.7366,-5.7325,-5.7296,-5.7226,-5.761,-5.761,-5.761,-5.761,-5.7532,-5.7509,-5.7656,-5.7728,-5.7794,-5.776,-5.7932,-5.7935,-5.7922,-5.7936,-5.7875,-5.778,-5.7754,-5.7728,-5.769,-5.7623,-5.8101,-5.8101,-5.8101,-5.7758,-5.774,-5.7895,-5.7885,-5.7929,-5.7967,-5.8127,-5.8212,-5.8179,-5.812,-5.7945,-5.7925,-5.7771,-5.7724,-5.7655,-5.7597,-5.7475,0,0]},{"header":{"parameterUnit":"m.s-1","parameterCategory":1,"la1":30.2992,"la2":30.254,"lo1":-89.0895,"lo2":-89.0443,"dy":0.0025,"dx":0.0025,"nx":19,"ny":19,"refTime":"2026-03-29T21:00:00:Z","depth":0,"parameterNumber":3,"parameterNumberName":"V-component_of_WINDS"},"data":[0,0,0,1.4284,1.4283,1.4224,1.4223,1.4177,1.4177,0,0,0,0,0,0,0,0,0,0,0,1.432,1.432,1.4284,1.4283,1.4224,1.4223,1.4177,1.4177,0,0,0,0,0,0,0,0,0,0,0,1.4319,1.432,1.432,1.4283,1.4224,1.4223,1.4177,1.4211,0,0,0,0,0,0,0,0,0,0,1.4263,1.4314,1.432,1.432,1.4282,1.4224,1.4223,1.4212,1.4209,1.4217,0,1.4229,0,1.4203,1.4176,1.4176,0,0,0,1.4268,1.4317,1.4285,1.432,1.4282,1.4224,1.4246,1.421,1.4206,1.4213,1.4228,1.4226,1.4202,1.4176,1.4176,1.4274,1.4275,0,0,1.4271,1.4318,1.4288,1.4284,1.4296,1.4248,1.4245,1.4207,1.4227,1.4228,1.4224,1.4201,1.4176,1.4175,1.4272,1.4274,0,0,0,1.4291,1.4321,1.4289,1.4287,1.4274,1.4247,1.4243,1.4229,1.4214,1.4224,1.4201,1.4175,1.4175,1.4271,1.4273,1.4376,0,0,0,1.4292,1.4332,1.4291,1.4319,1.4275,1.4251,1.4266,1.4217,1.4211,1.4201,1.4175,1.4175,1.427,1.4272,1.437,1.4416,0,0,0,1.4317,1.4335,1.4333,1.4322,1.4299,1.425,1.4233,1.4215,1.4198,1.4176,1.4175,1.4269,1.4272,1.4365,1.4407,1.4456,0,0,0,1.4357,1.4423,1.4336,1.4401,1.43,1.4315,1.4233,1.4241,1.4235,1.4175,1.427,1.4273,1.4364,1.4402,1.4452,1.4506,1.4534,0,0,1.4466,1.4438,1.4473,1.4393,1.4436,1.432,1.4378,1.4326,1.428,1.4278,1.428,1.4372,1.4407,1.4455,1.4671,1.4693,0,0,0,1.4523,1.4549,1.455,1.4547,1.4512,1.4484,1.4419,1.44,1.4397,1.4289,1.4401,1.4421,1.4447,1.4471,1.449,1.451,1.4286,1.4286,1.4285,1.4744,1.4684,1.4739,1.4673,1.4671,1.4606,1.4599,1.4562,1.4499,1.4528,1.4526,1.4665,1.4694,1.4708,1.473,1.4551,1.4551,1.4551,1.4552,1.4899,1.4926,1.4846,1.487,1.4807,1.4826,1.4767,1.4723,1.4731,1.4659,1.468,1.4607,1.4734,1.475,1.4559,1.4557,1.4556,1.4556,1.4555,1.5036,1.5039,1.5018,1.501,1.501,1.4941,1.4955,1.4896,1.484,1.486,1.4854,1.4852,1.4843,1.4862,1.4862,1.4863,1.4863,1.4863,1.4864,1.5187,1.5159,1.5178,1.5149,1.5141,1.5124,1.5061,1.5051,1.5026,1.4982,1.4981,1.4918,1.4758,1.472,1.4871,1.487,1.4869,1.4868,1.4868,1.5365,1.5317,1.5346,1.5339,1.5301,1.5307,1.5234,1.522,1.5203,1.5212,1.5145,1.5037,1.5003,1.4987,1.4955,1.5158,1.5158,1.5158,1.5158,1.5481,1.5459,1.5478,1.5471,1.5457,1.5395,1.5431,1.5385,1.5328,1.5315,1.5277,1.523,1.5217,1.519,1.517,1.5139,1.5384,1.5384,1.5384,1.5588,1.5563,1.5605,1.5551,1.5519,1.5492,1.5525,1.552,1.5445,1.5392,1.5303,1.5294,1.5216,1.5194,1.5136,1.5107,1.5048,0,0]}]]